TimeCST,TemperatureF,Dew PointF,Humidity,Sea Level PressureIn,VisibilityMPH,Wind Direction,Wind SpeedMPH,Gust SpeedMPH,PrecipitationIn,Events,Conditions,WindDirDegrees,DateUTC
12:15 AM,37.9,34.7,88,30.16,10.0,South,8.1,-,N/A,,Mostly Cloudy,180,2013-01-09 06:15:00
12:35 AM,37.4,34.7,90,30.17,10.0,South,6.9,-,N/A,,Overcast,190,2013-01-09 06:35:00
12:55 AM,38.1,34.7,87,30.18,10.0,South,9.2,-,N/A,,Mostly Cloudy,190,2013-01-09 06:55:00
1:55 AM,38.8,35.6,88,30.20,10.0,South,9.2,-,N/A,Rain,Light Rain,190,2013-01-09 07:55:00
2:15 AM,39.6,35.8,86,30.20,10.0,South,9.2,-,N/A,Rain,Light Rain,190,2013-01-09 08:15:00
2:35 AM,39.2,35.8,88,30.21,10.0,SSW,8.1,-,N/A,Rain,Light Rain,200,2013-01-09 08:35:00
2:55 AM,38.7,36.0,90,30.22,10.0,SSW,8.1,-,N/A,Rain,Rain,210,2013-01-09 08:55:00
3:15 AM,39.4,36.7,90,30.22,10.0,SSW,9.2,-,N/A,,Overcast,210,2013-01-09 09:15:00
3:35 AM,43.9,38.7,82,30.22,10.0,SW,10.4,-,N/A,,Overcast,230,2013-01-09 09:35:00
3:55 AM,42.6,38.3,85,30.22,10.0,SW,8.1,-,N/A,,Mostly Cloudy,230,2013-01-09 09:55:00
4:15 AM,41.0,37.4,87,30.23,10.0,WSW,8.1,-,N/A,,Scattered Clouds,240,2013-01-09 10:15:00
4:55 AM,41.0,37.0,86,30.25,10.0,WSW,9.2,-,N/A,,Clear,250,2013-01-09 10:55:00
5:15 AM,40.3,36.5,86,30.26,10.0,West,8.1,-,N/A,,Clear,260,2013-01-09 11:15:00
5:35 AM,39.2,36.0,88,30.26,10.0,WSW,8.1,-,N/A,,Clear,250,2013-01-09 11:35:00
5:55 AM,38.3,35.4,89,30.27,10.0,WSW,8.1,-,N/A,,Clear,250,2013-01-09 11:55:00
6:15 AM,36.5,34.0,91,30.28,10.0,West,6.9,-,N/A,,Clear,260,2013-01-09 12:15:00
6:35 AM,36.9,33.6,88,30.28,10.0,West,4.6,-,N/A,,Clear,260,2013-01-09 12:35:00
6:55 AM,38.5,34.2,84,30.30,10.0,West,6.9,-,N/A,,Clear,270,2013-01-09 12:55:00
7:15 AM,37.9,33.8,85,30.31,10.0,West,6.9,-,N/A,,Clear,280,2013-01-09 13:15:00
7:35 AM,37.8,33.4,84,30.32,10.0,West,5.8,-,N/A,,Clear,270,2013-01-09 13:35:00
7:55 AM,37.6,33.8,86,30.33,10.0,West,4.6,-,N/A,,Clear,280,2013-01-09 13:55:00
8:15 AM,37.2,34.0,88,30.35,10.0,SW,3.5,-,N/A,,Clear,230,2013-01-09 14:15:00
8:35 AM,38.5,35.1,87,30.36,10.0,WSW,5.8,-,N/A,,Clear,250,2013-01-09 14:35:00
8:55 AM,40.5,35.1,81,30.36,10.0,West,5.8,-,N/A,,Clear,260,2013-01-09 14:55:00
9:15 AM,42.3,35.4,77,30.36,10.0,West,6.9,-,N/A,,Clear,260,2013-01-09 15:15:00
9:35 AM,43.0,36.0,76,30.37,10.0,WNW,5.8,-,N/A,,Clear,290,2013-01-09 15:35:00
9:55 AM,43.7,37.0,77,30.40,10.0,West,5.8,-,N/A,,Clear,280,2013-01-09 15:55:00
10:15 AM,44.6,37.0,75,30.40,10.0,West,4.6,-,N/A,,Clear,280,2013-01-09 16:15:00
10:55 AM,48.2,36.7,64,30.39,10.0,NW,8.1,-,N/A,,Clear,320,2013-01-09 16:55:00
11:35 AM,49.1,35.4,59,30.40,10.0,WNW,8.1,-,N/A,,Clear,290,2013-01-09 17:35:00
12:15 PM,50.2,36.0,58,30.38,10.0,WNW,9.2,-,N/A,,Clear,300,2013-01-09 18:15:00
12:35 PM,51.3,36.9,58,30.37,10.0,NW,5.8,-,N/A,,Clear,310,2013-01-09 18:35:00
12:55 PM,52.2,35.8,54,30.37,10.0,WNW,9.2,-,N/A,,Clear,300,2013-01-09 18:55:00
1:15 PM,52.9,36.0,53,30.37,10.0,WNW,9.2,-,N/A,,Clear,300,2013-01-09 19:15:00
1:35 PM,52.9,34.7,50,30.38,10.0,NW,11.5,-,N/A,,Clear,310,2013-01-09 19:35:00
1:55 PM,53.1,33.8,48,30.39,10.0,NNW,9.2,-,N/A,,Clear,330,2013-01-09 19:55:00
2:15 PM,51.8,33.6,50,30.40,10.0,NW,10.4,-,N/A,,Clear,310,2013-01-09 20:15:00
2:35 PM,51.6,32.9,49,30.40,10.0,NNW,6.9,-,N/A,,Clear,330,2013-01-09 20:35:00
2:55 PM,50.5,32.4,50,30.41,10.0,NNW,9.2,-,N/A,,Clear,330,2013-01-09 20:55:00
3:15 PM,50.0,33.6,53,30.41,10.0,NNW,10.4,-,N/A,,Clear,330,2013-01-09 21:15:00
3:35 PM,49.5,34.3,56,30.42,10.0,NNW,8.1,-,N/A,,Clear,340,2013-01-09 21:35:00
3:55 PM,48.2,35.1,60,30.42,10.0,North,8.1,-,N/A,,Clear,360,2013-01-09 21:55:00
4:15 PM,45.7,33.8,63,30.43,10.0,North,8.1,-,N/A,,Clear,360,2013-01-09 22:15:00
4:35 PM,44.6,32.9,64,30.43,10.0,North,9.2,-,N/A,,Clear,350,2013-01-09 22:35:00
4:55 PM,41.7,33.1,71,30.43,10.0,North,4.6,-,N/A,,Clear,350,2013-01-09 22:55:00
5:15 PM,42.1,33.3,71,30.43,10.0,Calm,Calm,-,N/A,,Clear,0,2013-01-09 23:15:00
5:35 PM,41.5,32.9,71,30.44,10.0,North,4.6,-,N/A,,Clear,10,2013-01-09 23:35:00
5:55 PM,42.8,33.6,70,30.44,10.0,NNE,5.8,-,N/A,,Clear,20,2013-01-09 23:55:00
6:15 PM,40.6,32.0,71,30.46,10.0,NNE,4.6,-,N/A,,Clear,20,2013-01-10 00:15:00
6:35 PM,40.3,30.7,69,30.47,10.0,NE,3.5,-,N/A,,Clear,40,2013-01-10 00:35:00
6:55 PM,37.2,30.9,78,30.48,10.0,Calm,Calm,-,N/A,,Clear,0,2013-01-10 00:55:00
7:15 PM,37.8,30.9,76,30.48,10.0,NE,4.6,-,N/A,,Clear,50,2013-01-10 01:15:00
7:35 PM,37.2,30.4,76,30.49,10.0,East,3.5,-,N/A,,Clear,80,2013-01-10 01:35:00
8:15 PM,36.1,31.5,83,30.49,10.0,East,4.6,-,N/A,,Clear,90,2013-01-10 02:15:00
8:35 PM,38.5,32.0,78,30.48,10.0,East,4.6,-,N/A,,Clear,80,2013-01-10 02:35:00
8:55 PM,38.1,32.0,79,30.47,10.0,NE,8.1,-,N/A,,Clear,50,2013-01-10 02:55:00
9:15 PM,37.4,31.6,80,30.47,10.0,NE,5.8,-,N/A,,Clear,50,2013-01-10 03:15:00
9:35 PM,38.3,30.2,73,30.47,10.0,ENE,5.8,-,N/A,,Clear,60,2013-01-10 03:35:00
9:55 PM,37.9,30.0,73,30.47,10.0,East,4.6,-,N/A,,Clear,80,2013-01-10 03:55:00
10:15 PM,37.9,30.4,74,30.48,10.0,ESE,4.6,-,N/A,,Clear,110,2013-01-10 04:15:00
10:35 PM,36.0,30.4,80,30.48,10.0,ESE,3.5,-,N/A,,Clear,110,2013-01-10 04:35:00
10:55 PM,34.2,29.8,84,30.48,10.0,ESE,3.5,-,N/A,,Clear,120,2013-01-10 04:55:00
11:15 PM,35.2,30.2,82,30.48,10.0,East,3.5,-,N/A,,Clear,100,2013-01-10 05:15:00
11:35 PM,35.2,30.2,82,30.47,10.0,East,4.6,-,N/A,,Clear,90,2013-01-10 05:35:00
11:55 PM,34.5,30.0,84,30.46,10.0,East,5.8,-,N/A,,Clear,80,2013-01-10 05:55:00